This is the latest recevied weather packets stored in our database for station/object KB1JDX. If no packets are shown the sender has not sent any weather packets the latest 10 day(s).
| Time | Temp. | Humidity | Pressure | Rain* | Wind** | Luminosity | Snow |
|---|---|---|---|---|---|---|---|
| 1777885288 | 2.78° C | 57% | 1011.8 hPa | 0 mm | 0 m/s | - | - |
| 1777885233 | 2.78° C | 57% | 1011.8 hPa | 0 mm | 0 m/s | - | - |
| 1777884034 | 2.78° C | 57% | 1011.5 hPa | 0 mm | 0 m/s | - | - |
| 1777882834 | 3.33° C | 55% | 1011.4 hPa | 0 mm | 0 m/s | - | - |
| 1777882766 | 3.33° C | 55% | 1011.4 hPa | 0 mm | 0 m/s | - | - |
| 1777881633 | 3.33° C | 47% | 1011.4 hPa | 0 mm | 0 m/s | - | - |
| 1777880434 | 3.33° C | 43% | 1011.5 hPa | 0 mm | 0 m/s | - | - |
| 1777879234 | 3.33° C | 39% | 1011.5 hPa | 0 mm | 0 m/s | - | - |
| 1777879166 | 3.33° C | 39% | 1011.5 hPa | 0 mm | 0 m/s | - | - |
| 1777878034 | 2.78° C | 38% | 1011.6 hPa | 0 mm | 0 m/s | - | - |
| 1777876834 | 2.22° C | 37% | 1011.6 hPa | 0 mm | 0 m/s | - | - |
| 1777875634 | 1.67° C | 40% | 1011.6 hPa | 0 mm | 0 m/s | - | - |
| 1777875566 | 1.67° C | 40% | 1011.6 hPa | 0 mm | 0 m/s | - | - |
| 1777874435 | 1.67° C | 42% | 1011.4 hPa | 0 mm | 0 m/s | - | - |
| 1777873233 | 1.67° C | 44% | 1011.5 hPa | 0 mm | 0 m/s | - | - |
| 1777872303 | 1.67° C | 48% | 1011.3 hPa | 0 mm | 0 m/s | - | - |
| 1777872033 | 1.67° C | 48% | 1011.3 hPa | 0 mm | 0 m/s | - | - |
| 1777871966 | 1.67° C | 48% | 1011.4 hPa | 0 mm | 0 m/s | - | - |
| 1777870834 | 1.67° C | 51% | 1011.5 hPa | 0 mm | 0 m/s | - | - |
| 1777869633 | 1.67° C | 53% | 1011.8 hPa | 0 mm | 0 m/s | - | - |
| 1777868433 | 2.22° C | 55% | 1011.7 hPa | 0 mm | 0 m/s | - | - |
| 1777868366 | 2.22° C | 55% | 1011.5 hPa | 0 mm | 0 m/s | - | - |
| 1777867233 | 2.22° C | 57% | 1011.4 hPa | 0 mm | 0 m/s | - | - |
| 1777866032 | 2.78° C | 59% | 1011.2 hPa | 0 mm | 0 m/s | - | - |
| 1777864833 | 2.78° C | 63% | 1011.3 hPa | 0 mm | 0 m/s | - | - |
* Rain latest hour (hover to see other rain measurements)
** Current wind speed in m/s (hover to see current wind gust speed)